Location: Ballingbuur
(53.0000°N, 5.7667°E)
Time: 07:05:06
(UTC+00:00)

Cosmos 2227 Rocket - Pass Details

Date: 29 November 2020
Orbit: 837 x 847 km, 71.0° (Epoch: 23 January)

Event Time Altitude Azimuth Distance (km) Brightness Sun altitude
Exits shadow 03:57:49 23° 3° (N) 1,710 3.8 -30.1°
Drops below altitude 10° 04:00:21 10° 22° (NNE) 2,472 4.9 -29.7°
Sets 04:03:03 0° 32° (NNE) 3,411 5.8 -29.3°
